GEFSMA_prec_meanprec_120.txt.gz
QPF
0.00 0.00 0.00 0.00 0.00 0.00 0.01 0.02 0.03 0.04 0.03 0.03 0.02 0.02 0.04 0.05 0.05 0.04 0.03 0.03 0.04 0.06 0.08 0.09 0.11 0.10 0.09 0.07 0.05 0.05 0.07 0.06 0.05 0.06 0.07 0.08 0.07 0.06 0.04 0.05 0.04 0.03 0.03
0.00 0.00 0.00 0.00 0.00 0.00 0.00 0.00 0.02 0.04 0.04 0.03 0.02 0.01 0.03 0.05 0.05 0.04 0.03 0.04 0.04 0.05 0.06 0.08 0.10 0.11 0.10 0.08 0.07 0.06 0.06 0.07 0.07 0.07 0.06 0.06 0.07 0.06 0.07 0.06 0.04 0.03 0.04
0.00 0.00 0.00 0.00 0.00 0.00 0.00 0.00 0.01 0.03 0.05 0.04 0.03 0.02 0.02 0.04 0.05 0.04 0.04 0.04 0.04 0.03 0.04 0.07 0.10 0.12 0.13 0.10 0.09 0.08 0.09 0.09 0.08 0.07 0.07 0.07 0.07 0.06 0.06 0.07 0.05 0.05 0.03
0.00 0.00 0.00 0.00 0.00 0.00 0.00 0.00 0.01 0.02 0.04 0.06 0.04 0.03 0.03 0.04 0.05 0.04 0.04 0.03 0.04 0.04 0.04 0.04 0.06 0.07 0.09 0.10 0.10 0.10 0.10 0.10 0.08 0.07 0.06 0.06 0.07 0.05 0.04 0.06 0.05 0.05 0.04
0.00 0.00 0.00 0.00 0.00 0.00 0.00 0.00 0.01 0.02 0.04 0.07 0.05 0.04 0.03 0.02 0.03 0.03 0.03 0.04 0.04 0.05 0.07 0.04 0.02 0.03 0.05 0.09 0.09 0.11 0.11 0.12 0.09 0.08 0.08 0.06 0.06 0.05 0.04 0.05 0.05 0.04 0.04
0.00 0.00 0.00 0.00 0.00 0.00 0.01 0.01 0.01 0.02 0.03 0.05 0.05 0.05 0.04 0.02 0.03 0.04 0.04 0.05 0.05 0.05 0.06 0.05 0.06 0.04 0.03 0.05 0.08 0.10 0.13 0.12 0.10 0.09 0.09 0.07 0.05 0.04 0.04 0.03 0.05 0.04 0.05
0.00 0.00 0.00 0.01 0.01 0.02 0.02 0.01 0.02 0.02 0.02 0.04 0.07 0.06 0.05 0.04 0.03 0.04 0.05 0.07 0.06 0.06 0.05 0.05 0.07 0.07 0.03 0.03 0.04 0.06 0.08 0.09 0.12 0.10 0.10 0.09 0.06 0.03 0.03 0.04 0.04 0.04 0.04
0.00 0.00 0.00 0.02 0.02 0.01 0.01 0.01 0.02 0.02 0.03 0.03 0.07 0.07 0.06 0.04 0.02 0.03 0.04 0.06 0.07 0.08 0.06 0.05 0.08 0.08 0.07 0.07 0.05 0.03 0.04 0.06 0.10 0.12 0.12 0.11 0.08 0.05 0.04 0.05 0.05 0.06 0.05
0.00 0.00 0.00 0.01 0.01 0.01 0.01 0.01 0.01 0.03 0.05 0.04 0.05 0.07 0.07 0.05 0.03 0.03 0.04 0.06 0.07 0.08 0.08 0.08 0.10 0.08 0.06 0.08 0.08 0.04 0.03 0.04 0.08 0.15 0.15 0.14 0.10 0.08 0.06 0.06 0.06 0.06 0.04
0.00 0.00 0.00 0.01 0.01 0.01 0.01 0.01 0.01 0.02 0.05 0.05 0.04 0.04 0.05 0.05 0.05 0.04 0.04 0.06 0.07 0.06 0.07 0.06 0.08 0.09 0.06 0.08 0.07 0.03 0.02 0.02 0.05 0.12 0.17 0.17 0.13 0.10 0.08 0.07 0.07 0.07 0.06
0.00 0.00 0.00 0.01 0.01 0.00 0.01 0.03 0.02 0.02 0.04 0.05 0.04 0.03 0.04 0.04 0.04 0.05 0.04 0.04 0.06 0.06 0.05 0.05 0.07 0.08 0.08 0.07 0.09 0.04 0.02 0.02 0.04 0.09 0.15 0.21 0.18 0.14 0.11 0.09 0.09 0.09 0.07
0.00 0.00 0.00 0.01 0.01 0.01 0.01 0.02 0.03 0.02 0.04 0.05 0.05 0.04 0.03 0.04 0.05 0.06 0.04 0.04 0.05 0.05 0.03 0.03 0.04 0.04 0.05 0.06 0.05 0.04 0.03 0.03 0.03 0.06 0.10 0.16 0.20 0.17 0.13 0.12 0.11 0.10 0.08
0.00 0.00 0.00 0.01 0.01 0.01 0.01 0.02 0.03 0.03 0.03 0.05 0.06 0.04 0.03 0.03 0.04 0.05 0.06 0.03 0.04 0.04 0.04 0.02 0.02 0.03 0.03 0.04 0.05 0.04 0.03 0.03 0.03 0.04 0.07 0.11 0.13 0.13 0.14 0.14 0.15 0.15 0.13
0.00 0.00 0.00 0.00 0.01 0.01 0.01 0.01 0.02 0.03 0.02 0.04 0.05 0.04 0.03 0.02 0.03 0.03 0.04 0.04 0.04 0.04 0.04 0.03 0.03 0.03 0.04 0.03 0.04 0.04 0.05 0.03 0.03 0.03 0.03 0.06 0.11 0.09 0.08 0.08 0.11 0.15 0.17
0.00 0.00 0.00 0.00 0.01 0.01 0.02 0.02 0.02 0.02 0.02 0.03 0.04 0.04 0.03 0.02 0.02 0.01 0.02 0.03 0.04 0.05 0.05 0.04 0.03 0.03 0.04 0.03 0.04 0.05 0.06 0.04 0.03 0.03 0.04 0.04 0.10 0.12 0.10 0.06 0.06 0.08 0.12
0.00 0.01 0.00 0.00 0.01 0.02 0.02 0.01 0.01 0.01 0.02 0.02 0.04 0.05 0.03 0.02 0.01 0.01 0.01 0.01 0.02 0.04 0.05 0.03 0.04 0.04 0.04 0.04 0.06 0.04 0.05 0.06 0.03 0.03 0.05 0.05 0.08 0.10 0.10 0.07 0.06 0.06 0.06
0.00 0.01 0.00 0.00 0.00 0.01 0.01 0.01 0.01 0.01 0.01 0.01 0.02 0.04 0.05 0.02 0.01 0.01 0.01 0.01 0.02 0.02 0.03 0.02 0.03 0.03 0.04 0.05 0.05 0.04 0.03 0.04 0.04 0.04 0.04 0.04 0.06 0.08 0.09 0.08 0.07 0.05 0.04
0.00 0.00 0.00 0.00 0.00 0.00 0.01 0.01 0.01 0.01 0.01 0.01 0.01 0.02 0.05 0.04 0.02 0.01 0.01 0.01 0.01 0.02 0.02 0.02 0.02 0.02 0.02 0.04 0.05 0.05 0.03 0.02 0.03 0.02 0.01 0.02 0.03 0.06 0.08 0.08 0.08 0.07 0.06
0.00 0.00 0.00 0.00 0.01 0.00 0.01 0.01 0.01 0.01 0.00 0.00 0.01 0.02 0.04 0.06 0.03 0.01 0.01 0.01 0.02 0.02 0.02 0.03 0.02 0.01 0.02 0.02 0.03 0.04 0.04 0.02 0.02 0.02 0.02 0.02 0.03 0.04 0.07 0.06 0.05 0.04 0.05
0.00 0.00 0.00 0.00 0.00 0.00 0.01 0.01 0.01 0.01 0.00 0.00 0.00 0.01 0.02 0.04 0.06 0.02 0.01 0.01 0.01 0.01 0.02 0.04 0.04 0.02 0.01 0.02 0.03 0.04 0.04 0.02 0.01 0.02 0.02 0.03 0.04 0.05 0.07 0.08 0.05 0.03 0.03
0.00 0.00 0.00 0.00 0.00 0.00 0.00 0.01 0.00 0.00 0.00 0.00 0.00 0.00 0.01 0.01 0.04 0.05 0.02 0.01 0.01 0.01 0.02 0.03 0.04 0.03 0.02 0.02 0.02 0.03 0.02 0.02 0.02 0.02 0.03 0.02 0.02 0.02 0.03 0.07 0.06 0.03 0.02
0.00 0.00 0.00 0.00 0.00 0.00 0.00 0.00 0.00 0.00 0.00 0.01 0.01 0.00 0.00 0.01 0.01 0.03 0.04 0.02 0.01 0.02 0.02 0.03 0.04 0.03 0.02 0.02 0.02 0.01 0.01 0.02 0.02 0.02 0.03 0.03 0.02 0.03 0.03 0.03 0.05 0.04 0.02
0.00 0.00 0.00 0.00 0.00 0.00 0.00 0.00 0.00 0.00 0.01 0.01 0.01 0.01 0.00 0.00 0.01 0.01 0.02 0.02 0.02 0.01 0.01 0.02 0.02 0.02 0.01 0.01 0.01 0.01 0.02 0.02 0.02 0.02 0.03 0.02 0.02 0.03 0.04 0.05 0.05 0.04 0.04
0.00 0.00 0.00 0.00 0.00 0.00 0.00 0.00 0.00 0.00 0.00 0.00 0.01 0.01 0.01 0.00 0.00 0.00 0.01 0.02 0.02 0.01 0.01 0.01 0.01 0.01 0.01 0.02 0.02 0.02 0.03 0.02 0.02 0.02 0.03 0.03 0.02 0.03 0.03 0.04 0.05 0.05 0.05
0.00 0.00 0.00 0.00 0.00 0.00 0.00 0.00 0.00 0.00 0.00 0.00 0.00 0.00 0.00 0.01 0.00 0.00 0.01 0.01 0.01 0.01 0.01 0.01 0.01 0.01 0.01 0.02 0.02 0.03 0.02 0.03 0.03 0.03 0.04 0.03 0.03 0.03 0.04 0.04 0.04 0.04 0.04
0.00 0.00 0.00 0.00 0.00 0.00 0.00 0.00 0.00 0.00 0.00 0.00 0.01 0.00 0.00 0.00 0.01 0.00 0.01 0.01 0.01 0.01 0.01 0.02 0.02 0.01 0.01 0.01 0.02 0.02 0.03 0.04 0.04 0.03 0.04 0.04 0.03 0.03 0.05 0.05 0.05 0.04 0.05

GEFSMA_prec_meanprec_126.txt.gz
QPF
0.00 0.00 0.00 0.00 0.00 0.00 0.01 0.02 0.03 0.01 0.01 0.02 0.02 0.02 0.03 0.04 0.05 0.09 0.08 0.05 0.03 0.04 0.03 0.04 0.05 0.06 0.06 0.06 0.06 0.04 0.03 0.03 0.03 0.04 0.04 0.05 0.05 0.04 0.05 0.05 0.07 0.06 0.05
0.00 0.00 0.00 0.00 0.00 0.00 0.00 0.01 0.02 0.02 0.02 0.02 0.01 0.01 0.02 0.04 0.04 0.07 0.07 0.05 0.03 0.03 0.03 0.04 0.05 0.06 0.07 0.07 0.07 0.06 0.04 0.03 0.04 0.05 0.04 0.04 0.05 0.05 0.05 0.05 0.07 0.06 0.04
0.00 0.00 0.00 0.00 0.00 0.00 0.00 0.00 0.01 0.02 0.02 0.02 0.02 0.01 0.01 0.02 0.03 0.06 0.09 0.07 0.05 0.03 0.03 0.04 0.06 0.07 0.06 0.07 0.07 0.07 0.05 0.04 0.04 0.04 0.03 0.04 0.04 0.04 0.04 0.06 0.06 0.06 0.05
0.00 0.00 0.00 0.00 0.00 0.00 0.00 0.00 0.01 0.02 0.04 0.03 0.03 0.02 0.02 0.02 0.02 0.05 0.05 0.07 0.09 0.08 0.05 0.04 0.05 0.07 0.07 0.07 0.06 0.07 0.06 0.05 0.04 0.04 0.04 0.04 0.04 0.04 0.04 0.06 0.06 0.05 0.04
0.00 0.00 0.00 0.00 0.00 0.00 0.00 0.00 0.02 0.03 0.05 0.04 0.03 0.04 0.03 0.03 0.03 0.05 0.04 0.07 0.08 0.12 0.13 0.06 0.04 0.04 0.05 0.05 0.05 0.07 0.07 0.05 0.05 0.06 0.05 0.04 0.03 0.04 0.04 0.05 0.07 0.05 0.04
0.00 0.00 0.00 0.00 0.00 0.01 0.01 0.01 0.01 0.03 0.04 0.05 0.04 0.06 0.04 0.03 0.03 0.05 0.05 0.06 0.06 0.09 0.12 0.08 0.07 0.04 0.03 0.04 0.05 0.07 0.07 0.05 0.05 0.06 0.06 0.06 0.04 0.04 0.04 0.04 0.05 0.04 0.03
0.00 0.00 0.00 0.01 0.01 0.01 0.02 0.02 0.03 0.03 0.05 0.06 0.07 0.07 0.06 0.04 0.04 0.05 0.05 0.06 0.07 0.10 0.14 0.10 0.08 0.09 0.07 0.04 0.03 0.05 0.06 0.07 0.05 0.05 0.07 0.08 0.05 0.04 0.03 0.04 0.05 0.04 0.03
0.00 0.00 0.00 0.01 0.01 0.02 0.01 0.01 0.03 0.04 0.05 0.05 0.06 0.07 0.09 0.08 0.05 0.04 0.05 0.06 0.08 0.10 0.11 0.09 0.07 0.09 0.10 0.11 0.06 0.03 0.04 0.06 0.07 0.07 0.09 0.08 0.06 0.04 0.03 0.03 0.04 0.04 0.04
0.00 0.00 0.00 0.00 0.00 0.01 0.01 0.01 0.02 0.05 0.06 0.05 0.05 0.06 0.08 0.08 0.07 0.06 0.05 0.05 0.08 0.10 0.10 0.08 0.07 0.11 0.11 0.14 0.11 0.04 0.02 0.03 0.05 0.08 0.10 0.12 0.09 0.05 0.03 0.02 0.03 0.05 0.06
0.00 0.00 0.00 0.00 0.01 0.01 0.01 0.01 0.02 0.04 0.05 0.06 0.05 0.05 0.05 0.08 0.09 0.08 0.05 0.05 0.06 0.08 0.09 0.07 0.07 0.12 0.12 0.13 0.11 0.06 0.02 0.01 0.03 0.07 0.09 0.13 0.14 0.10 0.05 0.03 0.04 0.04 0.04
0.00 0.00 0.00 0.01 0.01 0.01 0.01 0.01 0.02 0.03 0.04 0.05 0.06 0.06 0.06 0.07 0.09 0.10 0.07 0.07 0.07 0.08 0.08 0.07 0.06 0.08 0.09 0.12 0.13 0.07 0.03 0.01 0.01 0.05 0.09 0.13 0.16 0.16 0.12 0.08 0.05 0.05 0.05
0.00 0.00 0.00 0.00 0.01 0.01 0.01 0.01 0.01 0.02 0.04 0.05 0.07 0.06 0.05 0.07 0.09 0.09 0.09 0.07 0.07 0.06 0.06 0.05 0.05 0.05 0.08 0.11 0.09 0.07 0.03 0.02 0.01 0.01 0.05 0.09 0.13 0.16 0.16 0.14 0.11 0.10 0.09
0.00 0.00 0.00 0.00 0.01 0.01 0.01 0.02 0.02 0.02 0.03 0.04 0.06 0.06 0.05 0.05 0.06 0.09 0.09 0.08 0.07 0.07 0.05 0.04 0.04 0.04 0.05 0.10 0.09 0.05 0.03 0.01 0.01 0.01 0.02 0.07 0.11 0.15 0.17 0.15 0.14 0.15 0.13
0.00 0.00 0.00 0.00 0.01 0.01 0.01 0.01 0.01 0.02 0.02 0.03 0.03 0.04 0.04 0.04 0.04 0.06 0.08 0.09 0.09 0.08 0.06 0.04 0.05 0.04 0.05 0.09 0.09 0.08 0.05 0.02 0.01 0.01 0.01 0.03 0.05 0.08 0.10 0.11 0.12 0.13 0.14
0.00 0.00 0.00 0.00 0.01 0.01 0.01 0.01 0.01 0.01 0.02 0.03 0.03 0.03 0.04 0.03 0.03 0.03 0.04 0.06 0.08 0.09 0.08 0.07 0.07 0.06 0.06 0.08 0.07 0.07 0.07 0.03 0.01 0.01 0.02 0.02 0.03 0.04 0.06 0.07 0.08 0.09 0.09
0.00 0.00 0.00 0.00 0.00 0.01 0.01 0.01 0.01 0.01 0.01 0.02 0.03 0.03 0.03 0.03 0.02 0.02 0.03 0.04 0.05 0.07 0.08 0.09 0.07 0.06 0.07 0.07 0.07 0.07 0.07 0.04 0.02 0.01 0.01 0.02 0.03 0.03 0.04 0.04 0.05 0.05 0.06
0.00 0.01 0.01 0.00 0.00 0.00 0.01 0.01 0.01 0.01 0.01 0.01 0.02 0.02 0.02 0.03 0.02 0.02 0.02 0.03 0.04 0.05 0.06 0.08 0.07 0.08 0.09 0.09 0.07 0.07 0.07 0.07 0.03 0.02 0.02 0.03 0.03 0.03 0.03 0.03 0.03 0.03 0.04
0.00 0.00 0.00 0.00 0.00 0.00 0.01 0.01 0.01 0.01 0.01 0.01 0.02 0.01 0.02 0.02 0.02 0.02 0.02 0.03 0.04 0.04 0.04 0.05 0.04 0.07 0.08 0.10 0.08 0.08 0.08 0.08 0.05 0.03 0.02 0.03 0.02 0.03 0.03 0.02 0.03 0.03 0.03
0.00 0.00 0.00 0.00 0.00 0.00 0.01 0.01 0.01 0.02 0.02 0.01 0.01 0.01 0.02 0.02 0.03 0.03 0.02 0.03 0.03 0.03 0.04 0.04 0.03 0.04 0.06 0.07 0.08 0.05 0.07 0.07 0.05 0.03 0.02 0.01 0.02 0.02 0.02 0.02 0.02 0.02 0.02
0.00 0.00 0.00 0.00 0.00 0.00 0.00 0.01 0.01 0.02 0.01 0.01 0.01 0.01 0.01 0.01 0.03 0.03 0.03 0.03 0.03 0.03 0.04 0.04 0.03 0.03 0.04 0.05 0.07 0.05 0.04 0.05 0.05 0.03 0.03 0.02 0.01 0.01 0.02 0.03 0.03 0.02 0.02
0.00 0.00 0.00 0.00 0.00 0.00 0.00 0.01 0.01 0.01 0.00 0.00 0.00 0.00 0.01 0.01 0.02 0.03 0.03 0.03 0.03 0.03 0.03 0.05 0.06 0.05 0.04 0.04 0.05 0.06 0.05 0.04 0.03 0.03 0.04 0.04 0.03 0.02 0.01 0.02 0.02 0.03 0.02
0.00 0.00 0.00 0.00 0.00 0.00 0.00 0.01 0.01 0.00 0.00 0.01 0.01 0.01 0.01 0.01 0.01 0.03 0.04 0.03 0.03 0.03 0.03 0.04 0.06 0.07 0.05 0.05 0.06 0.06 0.05 0.05 0.04 0.03 0.03 0.03 0.04 0.04 0.03 0.02 0.01 0.02 0.02
0.00 0.00 0.00 0.00 0.00 0.00 0.00 0.00 0.01 0.00 0.00 0.01 0.02 0.02 0.01 0.01 0.01 0.02 0.06 0.06 0.03 0.02 0.02 0.03 0.05 0.04 0.05 0.05 0.05 0.05 0.04 0.04 0.04 0.04 0.04 0.04 0.03 0.03 0.03 0.03 0.03 0.02 0.02
0.00 0.00 0.00 0.00 0.00 0.00 0.00 0.00 0.00 0.00 0.00 0.01 0.02 0.03 0.02 0.02 0.01 0.02 0.04 0.06 0.07 0.04 0.02 0.02 0.03 0.03 0.03 0.04 0.05 0.05 0.06 0.05 0.04 0.06 0.06 0.06 0.06 0.04 0.02 0.03 0.03 0.02 0.02
0.00 0.00 0.00 0.00 0.00 0.00 0.00 0.00 0.00 0.00 0.01 0.01 0.02 0.02 0.02 0.03 0.02 0.02 0.03 0.04 0.05 0.05 0.04 0.03 0.02 0.03 0.03 0.03 0.04 0.05 0.05 0.06 0.04 0.04 0.07 0.06 0.06 0.06 0.05 0.04 0.03 0.02 0.01
0.00 0.00 0.00 0.00 0.00 0.00 0.00 0.00 0.00 0.00 0.00 0.00 0.01 0.01 0.02 0.03 0.03 0.03 0.03 0.04 0.04 0.04 0.05 0.03 0.02 0.03 0.04 0.04 0.03 0.03 0.04 0.05 0.05 0.03 0.04 0.06 0.04 0.05 0.05 0.06 0.05 0.04 0.03

GEFSMA_prec_meanprec_132.txt.gz
QPF
0.00 0.00 0.00 0.00 0.00 0.00 0.00 0.00 0.00 0.00 0.00 0.00 0.01 0.01 0.02 0.04 0.03 0.05 0.05 0.05 0.05 0.06 0.08 0.08 0.05 0.03 0.05 0.08 0.06 0.04 0.04 0.04 0.03 0.02 0.03 0.03 0.04 0.04 0.03 0.04 0.04 0.05 0.08
0.00 0.00 0.00 0.00 0.00 0.00 0.00 0.00 0.00 0.00 0.00 0.00 0.01 0.01 0.01 0.02 0.03 0.04 0.05 0.05 0.05 0.05 0.07 0.07 0.06 0.05 0.06 0.07 0.07 0.06 0.05 0.05 0.03 0.02 0.02 0.03 0.03 0.03 0.03 0.03 0.03 0.04 0.06
0.00 0.00 0.00 0.00 0.00 0.00 0.00 0.00 0.00 0.00 0.00 0.00 0.00 0.01 0.01 0.01 0.02 0.04 0.05 0.05 0.04 0.05 0.06 0.08 0.08 0.08 0.07 0.07 0.07 0.07 0.05 0.04 0.04 0.03 0.02 0.02 0.02 0.02 0.02 0.03 0.03 0.03 0.03
0.00 0.00 0.00 0.00 0.00 0.00 0.00 0.00 0.00 0.00 0.00 0.00 0.01 0.01 0.01 0.01 0.02 0.05 0.07 0.05 0.04 0.03 0.04 0.06 0.07 0.09 0.08 0.07 0.08 0.07 0.05 0.04 0.03 0.03 0.03 0.03 0.02 0.02 0.01 0.02 0.02 0.03 0.03
0.00 0.00 0.00 0.00 0.00 0.00 0.00 0.00 0.00 0.00 0.00 0.01 0.01 0.02 0.01 0.03 0.04 0.05 0.07 0.06 0.04 0.03 0.03 0.04 0.05 0.06 0.07 0.07 0.09 0.09 0.08 0.05 0.03 0.03 0.04 0.04 0.03 0.01 0.01 0.02 0.02 0.03 0.03
0.00 0.00 0.00 0.00 0.00 0.00 0.00 0.00 0.00 0.00 0.00 0.01 0.02 0.02 0.02 0.02 0.04 0.07 0.06 0.06 0.05 0.04 0.05 0.04 0.03 0.04 0.06 0.06 0.09 0.10 0.08 0.07 0.05 0.03 0.04 0.04 0.04 0.02 0.02 0.02 0.02 0.02 0.02
0.00 0.00 0.00 0.00 0.00 0.00 0.00 0.00 0.00 0.00 0.00 0.00 0.02 0.01 0.02 0.02 0.04 0.06 0.05 0.05 0.05 0.04 0.07 0.06 0.03 0.02 0.03 0.04 0.06 0.07 0.08 0.08 0.08 0.06 0.05 0.05 0.04 0.03 0.02 0.02 0.02 0.02 0.02
0.00 0.00 0.00 0.00 0.00 0.00 0.01 0.01 0.00 0.00 0.00 0.00 0.00 0.01 0.01 0.03 0.03 0.04 0.04 0.05 0.05 0.04 0.09 0.09 0.05 0.03 0.02 0.02 0.02 0.03 0.05 0.08 0.09 0.10 0.08 0.07 0.05 0.04 0.03 0.03 0.03 0.03 0.03
0.00 0.00 0.00 0.00 0.00 0.00 0.01 0.01 0.01 0.00 0.00 0.00 0.00 0.01 0.01 0.01 0.02 0.04 0.05 0.04 0.05 0.04 0.06 0.09 0.08 0.05 0.04 0.03 0.03 0.02 0.03 0.04 0.07 0.11 0.11 0.09 0.07 0.05 0.04 0.03 0.03 0.03 0.03
0.00 0.00 0.00 0.00 0.00 0.00 0.00 0.01 0.01 0.00 0.00 0.00 0.00 0.00 0.01 0.01 0.01 0.02 0.03 0.04 0.04 0.05 0.05 0.08 0.09 0.08 0.06 0.04 0.03 0.03 0.02 0.02 0.04 0.08 0.13 0.12 0.09 0.08 0.05 0.05 0.03 0.03 0.04
0.00 0.00 0.00 0.00 0.00 0.00 0.00 0.00 0.00 0.00 0.01 0.00 0.00 0.01 0.01 0.01 0.01 0.01 0.02 0.04 0.05 0.04 0.05 0.07 0.09 0.09 0.08 0.06 0.05 0.04 0.03 0.02 0.03 0.05 0.11 0.16 0.14 0.12 0.10 0.08 0.05 0.05 0.04
0.00 0.00 0.00 0.00 0.00 0.00 0.00 0.00 0.00 0.00 0.01 0.01 0.00 0.01 0.01 0.02 0.02 0.01 0.02 0.04 0.04 0.03 0.04 0.05 0.05 0.07 0.07 0.07 0.05 0.04 0.02 0.02 0.02 0.04 0.06 0.10 0.12 0.12 0.13 0.12 0.08 0.08 0.07
0.00 0.00 0.00 0.00 0.00 0.00 0.00 0.00 0.00 0.00 0.00 0.00 0.00 0.00 0.01 0.02 0.01 0.01 0.02 0.03 0.03 0.03 0.03 0.03 0.03 0.05 0.09 0.06 0.06 0.05 0.04 0.03 0.02 0.04 0.04 0.05 0.07 0.07 0.11 0.15 0.15 0.14 0.13
0.00 0.00 0.00 0.00 0.00 0.00 0.00 0.00 0.00 0.00 0.00 0.00 0.00 0.00 0.00 0.00 0.01 0.02 0.02 0.02 0.03 0.03 0.03 0.02 0.02 0.02 0.06 0.06 0.06 0.06 0.05 0.04 0.02 0.02 0.03 0.03 0.04 0.04 0.08 0.11 0.15 0.17 0.16
0.00 0.00 0.00 0.00 0.00 0.00 0.00 0.00 0.00 0.00 0.00 0.00 0.01 0.01 0.01 0.01 0.01 0.01 0.02 0.01 0.02 0.02 0.02 0.02 0.01 0.01 0.03 0.04 0.05 0.05 0.04 0.04 0.03 0.02 0.02 0.02 0.02 0.02 0.04 0.05 0.06 0.07 0.11
0.00 0.00 0.00 0.00 0.00 0.00 0.00 0.00 0.00 0.00 0.00 0.00 0.01 0.01 0.01 0.01 0.01 0.01 0.01 0.01 0.01 0.01 0.01 0.02 0.02 0.03 0.05 0.05 0.06 0.06 0.05 0.05 0.03 0.02 0.01 0.01 0.02 0.02 0.02 0.03 0.03 0.04 0.05
0.00 0.00 0.00 0.00 0.00 0.00 0.00 0.00 0.00 0.00 0.00 0.00 0.01 0.01 0.01 0.01 0.01 0.01 0.00 0.00 0.00 0.01 0.01 0.02 0.03 0.05 0.07 0.09 0.06 0.05 0.05 0.05 0.04 0.04 0.02 0.01 0.01 0.02 0.01 0.02 0.03 0.03 0.02
0.00 0.00 0.00 0.00 0.00 0.00 0.00 0.00 0.00 0.00 0.00 0.00 0.01 0.01 0.01 0.02 0.01 0.01 0.01 0.01 0.01 0.01 0.01 0.02 0.02 0.03 0.04 0.06 0.07 0.06 0.06 0.04 0.03 0.03 0.03 0.02 0.02 0.02 0.01 0.02 0.03 0.03 0.03
0.00 0.00 0.00 0.00 0.00 0.00 0.00 0.00 0.00 0.01 0.01 0.01 0.01 0.01 0.02 0.02 0.02 0.01 0.01 0.01 0.01 0.01 0.01 0.02 0.01 0.02 0.04 0.06 0.05 0.05 0.07 0.06 0.04 0.04 0.03 0.03 0.02 0.02 0.03 0.03 0.03 0.03 0.04
0.00 0.00 0.00 0.00 0.00 0.01 0.01 0.01 0.01 0.01 0.01 0.01 0.01 0.01 0.02 0.02 0.02 0.02 0.01 0.01 0.01 0.01 0.01 0.01 0.01 0.01 0.03 0.05 0.05 0.05 0.06 0.06 0.07 0.05 0.04 0.03 0.03 0.02 0.03 0.03 0.03 0.03 0.04
0.00 0.00 0.00 0.00 0.00 0.01 0.01 0.01 0.01 0.01 0.01 0.01 0.01 0.01 0.01 0.01 0.02 0.02 0.01 0.01 0.01 0.01 0.01 0.01 0.01 0.01 0.02 0.03 0.03 0.05 0.06 0.06 0.06 0.05 0.05 0.03 0.02 0.01 0.01 0.01 0.03 0.03 0.03
0.00 0.00 0.00 0.00 0.00 0.00 0.01 0.01 0.01 0.00 0.00 0.01 0.01 0.01 0.01 0.01 0.02 0.01 0.01 0.02 0.02 0.02 0.01 0.01 0.02 0.02 0.01 0.02 0.03 0.04 0.06 0.08 0.05 0.03 0.04 0.04 0.02 0.01 0.01 0.01 0.01 0.03 0.03
0.00 0.00 0.00 0.00 0.00 0.00 0.01 0.01 0.01 0.01 0.00 0.00 0.00 0.01 0.01 0.01 0.02 0.02 0.02 0.02 0.02 0.02 0.01 0.01 0.03 0.03 0.02 0.02 0.03 0.03 0.04 0.05 0.05 0.03 0.03 0.04 0.03 0.02 0.01 0.01 0.01 0.01 0.02
0.00 0.00 0.00 0.00 0.00 0.00 0.01 0.01 0.01 0.01 0.00 0.00 0.00 0.01 0.01 0.02 0.02 0.03 0.04 0.03 0.02 0.01 0.01 0.01 0.01 0.02 0.02 0.03 0.04 0.04 0.04 0.04 0.05 0.05 0.04 0.03 0.04 0.03 0.02 0.01 0.01 0.01 0.01
0.00 0.00 0.00 0.00 0.00 0.00 0.01 0.01 0.01 0.01 0.01 0.00 0.00 0.00 0.01 0.01 0.03 0.05 0.06 0.05 0.03 0.02 0.01 0.01 0.02 0.02 0.03 0.04 0.05 0.07 0.07 0.06 0.04 0.04 0.04 0.04 0.03 0.04 0.03 0.02 0.01 0.01 0.01
0.00 0.00 0.00 0.00 0.00 0.00 0.01 0.01 0.02 0.02 0.01 0.01 0.01 0.00 0.01 0.01 0.03 0.05 0.07 0.06 0.05 0.03 0.03 0.02 0.02 0.02 0.03 0.03 0.04 0.06 0.08 0.07 0.06 0.04 0.04 0.04 0.03 0.04 0.04 0.03 0.02 0.01 0.01

GEFSMA_prec_meanprec_138.txt.gz
QPF
0.00 0.00 0.00 0.00 0.00 0.00 0.00 0.00 0.00 0.00 0.00 0.00 0.00 0.01 0.01 0.01 0.02 0.01 0.02 0.02 0.03 0.04 0.06 0.08 0.07 0.07 0.09 0.10 0.09 0.06 0.05 0.07 0.08 0.06 0.07 0.07 0.07 0.07 0.06 0.05 0.05 0.04 0.03
0.00 0.00 0.00 0.00 0.00 0.00 0.00 0.00 0.00 0.00 0.00 0.00 0.01 0.01 0.01 0.01 0.02 0.01 0.01 0.01 0.02 0.04 0.06 0.08 0.10 0.09 0.11 0.10 0.10 0.07 0.08 0.09 0.09 0.07 0.07 0.06 0.07 0.07 0.05 0.04 0.04 0.05 0.03
0.00 0.00 0.00 0.00 0.00 0.00 0.00 0.00 0.00 0.00 0.00 0.00 0.01 0.01 0.01 0.01 0.01 0.01 0.01 0.00 0.00 0.02 0.05 0.08 0.12 0.11 0.12 0.11 0.10 0.09 0.10 0.09 0.09 0.09 0.08 0.06 0.06 0.07 0.05 0.03 0.03 0.04 0.04
0.00 0.00 0.00 0.00 0.00 0.00 0.00 0.00 0.00 0.00 0.00 0.00 0.00 0.01 0.01 0.01 0.01 0.01 0.01 0.00 0.00 0.01 0.03 0.06 0.08 0.09 0.09 0.13 0.13 0.10 0.09 0.09 0.07 0.10 0.09 0.06 0.05 0.05 0.05 0.04 0.03 0.04 0.05
0.00 0.00 0.00 0.00 0.00 0.00 0.00 0.00 0.00 0.00 0.00 0.00 0.00 0.00 0.01 0.01 0.01 0.02 0.02 0.01 0.01 0.01 0.02 0.03 0.04 0.05 0.07 0.10 0.13 0.11 0.09 0.09 0.08 0.07 0.09 0.06 0.05 0.04 0.04 0.05 0.04 0.05 0.05
0.00 0.00 0.00 0.00 0.00 0.00 0.00 0.00 0.00 0.00 0.00 0.00 0.00 0.00 0.00 0.01 0.01 0.03 0.03 0.02 0.02 0.01 0.01 0.01 0.01 0.02 0.05 0.07 0.11 0.12 0.11 0.10 0.08 0.07 0.08 0.08 0.05 0.03 0.04 0.05 0.04 0.04 0.06
0.00 0.00 0.00 0.00 0.00 0.00 0.01 0.01 0.00 0.00 0.00 0.00 0.00 0.00 0.00 0.00 0.01 0.02 0.03 0.02 0.02 0.02 0.02 0.01 0.01 0.01 0.02 0.04 0.06 0.10 0.11 0.11 0.09 0.07 0.09 0.09 0.05 0.04 0.03 0.04 0.05 0.04 0.05
0.00 0.00 0.00 0.00 0.00 0.00 0.01 0.01 0.00 0.00 0.00 0.00 0.00 0.00 0.00 0.00 0.01 0.01 0.02 0.02 0.02 0.01 0.02 0.02 0.02 0.02 0.03 0.03 0.03 0.05 0.07 0.10 0.11 0.10 0.11 0.11 0.07 0.05 0.04 0.04 0.05 0.06 0.07
0.00 0.00 0.00 0.00 0.00 0.00 0.01 0.01 0.00 0.00 0.00 0.00 0.00 0.00 0.00 0.00 0.00 0.01 0.01 0.02 0.02 0.01 0.01 0.01 0.01 0.03 0.03 0.03 0.03 0.04 0.04 0.05 0.10 0.14 0.12 0.10 0.10 0.08 0.05 0.03 0.04 0.06 0.06
0.00 0.00 0.00 0.00 0.00 0.00 0.00 0.00 0.00 0.00 0.00 0.00 0.00 0.00 0.00 0.00 0.00 0.01 0.01 0.01 0.02 0.02 0.01 0.01 0.01 0.03 0.03 0.02 0.03 0.04 0.04 0.02 0.05 0.10 0.14 0.12 0.11 0.12 0.11 0.07 0.04 0.04 0.06
0.00 0.00 0.00 0.00 0.00 0.00 0.00 0.00 0.00 0.00 0.00 0.00 0.00 0.00 0.00 0.00 0.00 0.00 0.01 0.01 0.01 0.02 0.02 0.02 0.02 0.03 0.04 0.03 0.02 0.03 0.03 0.04 0.03 0.05 0.10 0.15 0.14 0.13 0.14 0.12 0.08 0.05 0.05
0.00 0.00 0.00 0.00 0.00 0.00 0.00 0.00 0.00 0.00 0.00 0.00 0.00 0.00 0.00 0.00 0.00 0.00 0.01 0.01 0.01 0.01 0.01 0.02 0.02 0.03 0.05 0.04 0.02 0.03 0.03 0.03 0.04 0.03 0.05 0.09 0.13 0.13 0.13 0.13 0.12 0.10 0.08
0.00 0.00 0.00 0.00 0.00 0.00 0.00 0.00 0.00 0.00 0.00 0.00 0.00 0.00 0.00 0.00 0.00 0.00 0.00 0.00 0.01 0.01 0.01 0.02 0.02 0.02 0.03 0.03 0.03 0.03 0.01 0.01 0.02 0.03 0.03 0.05 0.09 0.12 0.11 0.12 0.13 0.11 0.12
0.00 0.00 0.00 0.00 0.00 0.00 0.00 0.00 0.00 0.00 0.00 0.00 0.00 0.00 0.00 0.00 0.00 0.01 0.01 0.01 0.01 0.02 0.02 0.02 0.02 0.02 0.02 0.02 0.02 0.02 0.01 0.01 0.02 0.03 0.03 0.04 0.06 0.09 0.09 0.10 0.14 0.15 0.16
0.00 0.00 0.00 0.00 0.00 0.00 0.00 0.00 0.00 0.00 0.00 0.00 0.00 0.00 0.00 0.00 0.00 0.01 0.01 0.01 0.01 0.02 0.02 0.02 0.02 0.02 0.02 0.01 0.01 0.01 0.01 0.01 0.02 0.03 0.03 0.04 0.05 0.06 0.08 0.07 0.09 0.13 0.17
0.00 0.00 0.00 0.00 0.00 0.00 0.00 0.00 0.00 0.00 0.00 0.00 0.00 0.00 0.00 0.00 0.00 0.00 0.01 0.01 0.01 0.01 0.01 0.02 0.02 0.03 0.02 0.01 0.01 0.01 0.02 0.02 0.01 0.02 0.03 0.03 0.03 0.03 0.04 0.04 0.04 0.06 0.08
0.00 0.00 0.00 0.00 0.00 0.00 0.00 0.00 0.00 0.00 0.00 0.00 0.00 0.00 0.00 0.00 0.00 0.01 0.01 0.01 0.01 0.01 0.01 0.01 0.01 0.02 0.02 0.01 0.01 0.02 0.03 0.02 0.02 0.01 0.02 0.02 0.02 0.03 0.03 0.03 0.03 0.02 0.04
0.00 0.00 0.00 0.00 0.00 0.00 0.00 0.00 0.00 0.00 0.00 0.00 0.00 0.00 0.00 0.00 0.00 0.01 0.01 0.01 0.01 0.01 0.01 0.01 0.00 0.01 0.02 0.01 0.02 0.04 0.04 0.02 0.01 0.02 0.02 0.02 0.02 0.02 0.03 0.03 0.03 0.03 0.03
0.00 0.00 0.00 0.00 0.00 0.00 0.00 0.00 0.00 0.00 0.00 0.00 0.00 0.00 0.00 0.00 0.01 0.01 0.01 0.01 0.01 0.01 0.01 0.01 0.00 0.00 0.01 0.01 0.03 0.04 0.05 0.04 0.02 0.02 0.04 0.05 0.05 0.03 0.03 0.03 0.04 0.05 0.05
0.00 0.00 0.00 0.00 0.00 0.00 0.00 0.00 0.00 0.00 0.00 0.00 0.00 0.00 0.00 0.00 0.01 0.01 0.01 0.01 0.02 0.02 0.02 0.01 0.01 0.01 0.01 0.01 0.02 0.02 0.03 0.03 0.03 0.03 0.04 0.04 0.05 0.05 0.03 0.03 0.02 0.03 0.04
0.00 0.00 0.00 0.00 0.00 0.00 0.00 0.00 0.00 0.00 0.00 0.00 0.00 0.00 0.00 0.00 0.00 0.01 0.02 0.02 0.02 0.02 0.02 0.01 0.01 0.00 0.01 0.01 0.01 0.01 0.02 0.02 0.03 0.04 0.04 0.04 0.04 0.04 0.03 0.02 0.02 0.03 0.04
0.00 0.00 0.00 0.00 0.00 0.00 0.00 0.00 0.00 0.00 0.00 0.00 0.00 0.00 0.00 0.00 0.00 0.01 0.02 0.03 0.03 0.03 0.02 0.02 0.01 0.01 0.00 0.01 0.01 0.01 0.02 0.03 0.03 0.02 0.02 0.03 0.02 0.02 0.02 0.01 0.02 0.03 0.05
0.00 0.00 0.00 0.00 0.00 0.00 0.00 0.00 0.00 0.00 0.00 0.00 0.00 0.00 0.00 0.00 0.01 0.01 0.02 0.02 0.03 0.04 0.04 0.03 0.02 0.01 0.01 0.01 0.01 0.02 0.02 0.03 0.03 0.03 0.03 0.03 0.03 0.02 0.01 0.01 0.01 0.02 0.03
0.00 0.00 0.00 0.00 0.00 0.00 0.00 0.00 0.00 0.00 0.00 0.00 0.01 0.00 0.00 0.01 0.01 0.01 0.01 0.02 0.03 0.04 0.04 0.04 0.03 0.01 0.01 0.01 0.02 0.02 0.02 0.03 0.04 0.06 0.06 0.05 0.04 0.03 0.02 0.01 0.01 0.02 0.02
0.00 0.00 0.00 0.00 0.00 0.00 0.00 0.00 0.00 0.00 0.00 0.00 0.00 0.00 0.00 0.01 0.01 0.01 0.01 0.01 0.03 0.03 0.05 0.06 0.05 0.03 0.02 0.02 0.03 0.03 0.03 0.04 0.05 0.06 0.06 0.06 0.05 0.04 0.04 0.02 0.01 0.01 0.01
0.00 0.00 0.00 0.00 0.00 0.00 0.00 0.00 0.00 0.00 0.00 0.00 0.00 0.01 0.01 0.01 0.01 0.01 0.01 0.01 0.02 0.02 0.04 0.05 0.06 0.05 0.03 0.02 0.03 0.03 0.03 0.03 0.04 0.04 0.04 0.04 0.04 0.05 0.05 0.05 0.03 0.01 0.01

GEFSMA_prec_meanprec_144.txt.gz
QPF
0.00 0.00 0.00 0.00 0.00 0.00 0.00 0.00 0.00 0.00 0.00 0.00 0.01 0.01 0.01 0.01 0.01 0.01 0.01 0.02 0.02 0.04 0.05 0.07 0.07 0.06 0.08 0.09 0.10 0.09 0.12 0.13 0.11 0.13 0.17 0.16 0.10 0.09 0.09 0.10 0.12 0.10 0.10
0.01 0.00 0.00 0.00 0.00 0.00 0.00 0.00 0.00 0.00 0.01 0.01 0.01 0.01 0.01 0.01 0.01 0.01 0.01 0.01 0.01 0.02 0.04 0.06 0.08 0.07 0.10 0.09 0.10 0.10 0.15 0.15 0.09 0.12 0.15 0.17 0.13 0.10 0.08 0.08 0.09 0.09 0.10
0.00 0.00 0.00 0.00 0.00 0.00 0.00 0.00 0.00 0.00 0.00 0.01 0.01 0.01 0.01 0.01 0.02 0.02 0.02 0.02 0.02 0.01 0.02 0.05 0.08 0.09 0.09 0.09 0.09 0.11 0.19 0.17 0.10 0.11 0.12 0.12 0.12 0.10 0.07 0.08 0.07 0.09 0.12
0.00 0.00 0.00 0.00 0.00 0.00 0.00 0.00 0.00 0.01 0.01 0.01 0.01 0.02 0.01 0.01 0.02 0.02 0.02 0.02 0.03 0.02 0.02 0.03 0.04 0.06 0.07 0.09 0.10 0.13 0.17 0.14 0.10 0.13 0.14 0.11 0.09 0.09 0.08 0.08 0.09 0.09 0.10
0.00 0.00 0.00 0.00 0.00 0.00 0.00 0.00 0.01 0.01 0.02 0.02 0.01 0.01 0.01 0.01 0.02 0.02 0.02 0.02 0.02 0.02 0.02 0.01 0.02 0.03 0.05 0.07 0.11 0.15 0.15 0.12 0.10 0.16 0.18 0.11 0.07 0.07 0.07 0.11 0.12 0.09 0.09
0.00 0.00 0.00 0.00 0.00 0.00 0.00 0.01 0.01 0.01 0.02 0.02 0.01 0.01 0.00 0.01 0.02 0.03 0.02 0.02 0.02 0.02 0.01 0.01 0.03 0.03 0.03 0.05 0.11 0.14 0.15 0.12 0.09 0.11 0.14 0.09 0.06 0.05 0.06 0.09 0.11 0.09 0.08
0.00 0.00 0.00 0.00 0.00 0.00 0.00 0.00 0.01 0.01 0.01 0.01 0.01 0.01 0.00 0.00 0.01 0.03 0.03 0.03 0.03 0.04 0.02 0.02 0.02 0.05 0.04 0.03 0.06 0.10 0.14 0.10 0.08 0.08 0.08 0.08 0.06 0.04 0.04 0.05 0.08 0.08 0.08
0.00 0.00 0.00 0.00 0.00 0.00 0.00 0.00 0.01 0.01 0.01 0.00 0.01 0.01 0.01 0.01 0.01 0.03 0.03 0.03 0.03 0.05 0.04 0.02 0.01 0.04 0.04 0.04 0.03 0.06 0.10 0.10 0.09 0.09 0.08 0.09 0.08 0.04 0.03 0.03 0.05 0.07 0.07
0.00 0.00 0.00 0.00 0.00 0.00 0.00 0.00 0.00 0.01 0.01 0.00 0.00 0.01 0.01 0.02 0.02 0.03 0.02 0.02 0.03 0.04 0.04 0.03 0.03 0.04 0.03 0.04 0.05 0.04 0.05 0.06 0.08 0.11 0.10 0.09 0.09 0.06 0.03 0.03 0.03 0.05 0.06
0.00 0.00 0.00 0.00 0.00 0.00 0.00 0.01 0.00 0.00 0.00 0.00 0.00 0.00 0.00 0.01 0.01 0.02 0.02 0.02 0.02 0.02 0.02 0.01 0.02 0.04 0.03 0.04 0.04 0.03 0.03 0.03 0.05 0.08 0.09 0.10 0.08 0.07 0.05 0.04 0.04 0.04 0.08
0.00 0.00 0.00 0.00 0.00 0.00 0.00 0.01 0.01 0.01 0.00 0.00 0.01 0.00 0.00 0.01 0.00 0.01 0.03 0.03 0.02 0.01 0.01 0.01 0.01 0.03 0.02 0.04 0.04 0.02 0.02 0.03 0.04 0.03 0.04 0.08 0.08 0.07 0.07 0.06 0.05 0.06 0.09
0.00 0.00 0.00 0.00 0.00 0.00 0.00 0.00 0.01 0.01 0.01 0.00 0.00 0.00 0.01 0.01 0.01 0.01 0.03 0.03 0.02 0.01 0.01 0.01 0.01 0.02 0.04 0.04 0.03 0.02 0.03 0.02 0.02 0.02 0.02 0.03 0.06 0.07 0.07 0.08 0.08 0.07 0.08
0.00 0.00 0.00 0.00 0.00 0.00 0.00 0.00 0.00 0.00 0.00 0.00 0.00 0.00 0.00 0.00 0.00 0.01 0.01 0.01 0.01 0.01 0.00 0.00 0.01 0.01 0.03 0.05 0.04 0.03 0.02 0.02 0.01 0.01 0.01 0.02 0.02 0.05 0.07 0.08 0.09 0.09 0.09
0.00 0.00 0.00 0.00 0.00 0.00 0.00 0.00 0.00 0.00 0.00 0.00 0.00 0.00 0.00 0.00 0.00 0.00 0.01 0.01 0.01 0.01 0.01 0.01 0.01 0.01 0.02 0.03 0.05 0.03 0.02 0.01 0.01 0.01 0.01 0.01 0.01 0.03 0.04 0.05 0.06 0.07 0.08
0.00 0.00 0.00 0.00 0.00 0.00 0.00 0.00 0.00 0.00 0.00 0.00 0.00 0.00 0.00 0.00 0.00 0.00 0.00 0.01 0.02 0.02 0.01 0.01 0.01 0.01 0.02 0.03 0.04 0.04 0.03 0.02 0.01 0.01 0.01 0.01 0.01 0.02 0.03 0.03 0.04 0.05 0.06
0.00 0.00 0.00 0.00 0.00 0.00 0.00 0.00 0.00 0.00 0.00 0.00 0.00 0.00 0.00 0.00 0.00 0.00 0.01 0.01 0.01 0.02 0.02 0.01 0.01 0.01 0.02 0.01 0.03 0.03 0.04 0.04 0.02 0.01 0.01 0.02 0.01 0.01 0.02 0.03 0.03 0.04 0.04
0.00 0.00 0.00 0.00 0.00 0.00 0.00 0.00 0.00 0.00 0.00 0.00 0.00 0.00 0.00 0.00 0.00 0.00 0.00 0.00 0.00 0.01 0.02 0.01 0.00 0.01 0.02 0.01 0.01 0.01 0.03 0.04 0.04 0.02 0.01 0.01 0.01 0.01 0.01 0.02 0.02 0.03 0.03
0.00 0.00 0.00 0.00 0.00 0.00 0.00 0.00 0.00 0.00 0.00 0.00 0.00 0.00 0.00 0.00 0.00 0.00 0.00 0.00 0.00 0.01 0.01 0.01 0.00 0.00 0.01 0.01 0.01 0.01 0.02 0.03 0.03 0.02 0.01 0.01 0.01 0.01 0.02 0.02 0.02 0.02 0.03
0.00 0.00 0.00 0.00 0.00 0.00 0.00 0.00 0.00 0.00 0.00 0.00 0.00 0.00 0.00 0.00 0.00 0.00 0.00 0.00 0.00 0.00 0.01 0.02 0.01 0.01 0.01 0.01 0.01 0.01 0.01 0.02 0.03 0.01 0.01 0.01 0.01 0.01 0.01 0.01 0.02 0.02 0.02
0.00 0.00 0.00 0.00 0.00 0.00 0.00 0.00 0.00 0.00 0.00 0.00 0.00 0.00 0.00 0.00 0.00 0.00 0.00 0.00 0.00 0.00 0.01 0.02 0.02 0.01 0.01 0.01 0.01 0.01 0.02 0.03 0.03 0.01 0.01 0.00 0.01 0.01 0.01 0.01 0.01 0.01 0.01
0.00 0.00 0.00 0.00 0.00 0.00 0.00 0.00 0.00 0.00 0.00 0.00 0.00 0.00 0.00 0.00 0.00 0.00 0.00 0.00 0.00 0.00 0.00 0.01 0.01 0.01 0.01 0.01 0.01 0.01 0.02 0.03 0.03 0.02 0.02 0.01 0.01 0.01 0.01 0.01 0.01 0.01 0.00
0.00 0.00 0.00 0.00 0.00 0.00 0.00 0.00 0.00 0.00 0.00 0.00 0.00 0.00 0.00 0.00 0.00 0.00 0.00 0.00 0.00 0.00 0.01 0.01 0.01 0.01 0.01 0.01 0.01 0.02 0.02 0.02 0.02 0.02 0.02 0.02 0.02 0.01 0.01 0.01 0.01 0.01 0.00
0.00 0.00 0.00 0.00 0.00 0.00 0.00 0.00 0.00 0.00 0.00 0.00 0.00 0.00 0.00 0.00 0.00 0.00 0.00 0.00 0.00 0.00 0.01 0.01 0.02 0.02 0.02 0.01 0.01 0.01 0.02 0.03 0.02 0.02 0.02 0.02 0.02 0.02 0.01 0.01 0.01 0.01 0.01
0.00 0.00 0.00 0.00 0.00 0.00 0.00 0.00 0.00 0.00 0.00 0.00 0.00 0.00 0.00 0.00 0.00 0.00 0.00 0.00 0.00 0.00 0.00 0.00 0.01 0.01 0.02 0.02 0.02 0.02 0.02 0.02 0.02 0.02 0.03 0.03 0.02 0.02 0.02 0.01 0.01 0.01 0.01
0.00 0.00 0.00 0.00 0.00 0.00 0.00 0.00 0.00 0.00 0.00 0.00 0.00 0.00 0.00 0.00 0.00 0.00 0.00 0.00 0.00 0.01 0.00 0.00 0.01 0.01 0.01 0.01 0.03 0.04 0.03 0.03 0.02 0.02 0.03 0.03 0.03 0.03 0.03 0.03 0.02 0.02 0.01
0.00 0.00 0.00 0.00 0.00 0.00 0.00 0.00 0.00 0.00 0.00 0.00 0.00 0.00 0.00 0.00 0.00 0.01 0.00 0.00 0.00 0.00 0.00 0.00 0.01 0.01 0.02 0.01 0.02 0.03 0.03 0.03 0.03 0.03 0.02 0.03 0.03 0.04 0.04 0.03 0.02 0.02 0.02